RYR4605 ESSA-EYKA

Flight info

Callsign RYR4605
Flight time 0h 55m
Altitude 35000
Route BABAP P156 RASEL Y40 LITPA DCT PELUT
Aircraft B738/M-SDGIRWY/S

Departure

Time 2026-04-26 18:45
Airport Stockholm-Arlanda Airport (ESSA)

Arrival

Time 2026-04-26 19:40
Airport Kaunas International Airport (EYKA)
Time Latitude Longitude Altitude Speed Heading
2026-04-26 18:14 59.64743 17.92522 111 ft 0 kts 36°
2026-04-26 18:33 59.64729 17.92508 111 ft 3 kts
2026-04-26 18:33 59.64710 17.92509 109 ft 3 kts 338°
2026-04-26 18:33 59.64694 17.92530 111 ft 3 kts 306°
2026-04-26 18:34 59.64687 17.92558 110 ft 0 kts 290°
2026-04-26 18:36 59.64688 17.92551 110 ft 2 kts 286°
2026-04-26 18:36 59.64699 17.92460 110 ft 11 kts 286°
2026-04-26 18:37 59.64720 17.92308 111 ft 12 kts 284°
2026-04-26 18:37 59.64667 17.92191 111 ft 17 kts 190°
2026-04-26 18:37 59.64580 17.92159 111 ft 21 kts 190°
2026-04-26 18:37 59.64436 17.92107 113 ft 18 kts 190°
2026-04-26 18:38 59.64336 17.92014 112 ft 16 kts 241°
2026-04-26 18:38 59.64269 17.91882 112 ft 13 kts 192°
2026-04-26 18:38 59.64183 17.91849 113 ft 12 kts 191°
2026-04-26 18:38 59.64107 17.91823 113 ft 11 kts 190°
2026-04-26 18:39 59.64032 17.91797 112 ft 11 kts 190°
2026-04-26 18:39 59.63953 17.91768 110 ft 12 kts 191°
2026-04-26 18:39 59.63867 17.91727 108 ft 13 kts 201°
2026-04-26 18:39 59.63830 17.91687 105 ft 0 kts 216°
2026-04-26 18:40 59.63810 17.91656 106 ft 8 kts 218°
2026-04-26 18:40 59.63781 17.91609 106 ft 0 kts 219°
2026-04-26 18:42 59.63750 17.91557 106 ft 11 kts 223°
2026-04-26 18:42 59.63729 17.91432 108 ft 8 kts 276°
2026-04-26 18:43 59.63739 17.91365 109 ft 6 kts 299°
2026-04-26 18:43 59.63782 17.91343 109 ft 0 kts
2026-04-26 18:43 59.63785 17.91344 109 ft 1 kts
2026-04-26 18:43 59.63790 17.91346 109 ft 0 kts
2026-04-26 18:44 59.63791 17.91346 109 ft 2 kts
2026-04-26 18:44 59.63994 17.91420 108 ft 67 kts 10°
2026-04-26 18:44 59.64692 17.91657 108 ft 135 kts
2026-04-26 18:45 59.65773 17.92180 328 ft 172 kts
2026-04-26 18:45 59.66884 17.92706 1509 ft 150 kts
2026-04-26 18:45 59.67952 17.93039 2252 ft 168 kts
2026-04-26 18:45 59.69187 17.93421 2705 ft 186 kts
2026-04-26 18:46 59.70488 17.93848 3307 ft 192 kts
2026-04-26 18:46 59.71798 17.94293 4004 ft 194 kts
2026-04-26 18:46 59.73138 17.94757 4719 ft 198 kts
2026-04-26 18:46 59.74500 17.95652 5164 ft 225 kts 31°
2026-04-26 18:47 59.75531 17.98253 5533 ft 259 kts 66°
2026-04-26 18:47 59.75770 18.01902 6309 ft 273 kts 87°
2026-04-26 18:47 59.75648 18.05714 7130 ft 279 kts 90°
2026-04-26 18:47 59.75494 18.09527 7902 ft 283 kts 90°
2026-04-26 18:48 59.74961 18.13349 8685 ft 296 kts 120°
2026-04-26 18:48 59.73509 18.16292 9536 ft 301 kts 142°
2026-04-26 18:48 59.71827 18.18830 10294 ft 307 kts 142°
2026-04-26 18:48 59.70037 18.21415 10567 ft 330 kts 144°
2026-04-26 18:49 59.68117 18.24096 10771 ft 353 kts 144°
2026-04-26 18:49 59.66053 18.26949 11210 ft 367 kts 144°
2026-04-26 18:49 59.63932 18.29872 11863 ft 374 kts 144°
2026-04-26 18:49 59.61776 18.32847 12549 ft 381 kts 143°
2026-04-26 18:50 59.59577 18.35883 13246 ft 388 kts 143°
2026-04-26 18:50 59.57370 18.38933 13928 ft 396 kts 143°
2026-04-26 18:50 59.55092 18.42080 14575 ft 402 kts 143°
2026-04-26 18:50 59.52778 18.45274 15267 ft 407 kts 143°
2026-04-26 18:51 59.50434 18.48504 15953 ft 413 kts 143°
2026-04-26 18:51 59.48062 18.51769 16604 ft 420 kts 143°
2026-04-26 18:51 59.45669 18.55057 17243 ft 427 kts 143°
2026-04-26 18:51 59.43218 18.58419 17894 ft 434 kts 143°
2026-04-26 18:52 59.40717 18.61843 18518 ft 440 kts 143°
2026-04-26 18:52 59.38188 18.65299 19094 ft 445 kts 143°
2026-04-26 18:52 59.35627 18.68792 19692 ft 450 kts 144°
2026-04-26 18:52 59.33043 18.72310 20288 ft 454 kts 144°
2026-04-26 18:53 59.30465 18.75812 20853 ft 459 kts 144°
2026-04-26 18:53 59.27792 18.79437 21428 ft 464 kts 144°
2026-04-26 18:53 59.25160 18.83000 21964 ft 469 kts 144°
2026-04-26 18:53 59.22462 18.86645 22512 ft 473 kts 144°
2026-04-26 18:54 59.19739 18.90317 23055 ft 478 kts 144°
2026-04-26 18:54 59.16987 18.94021 23593 ft 482 kts 144°
2026-04-26 18:54 59.14212 18.97747 24043 ft 486 kts 144°
2026-04-26 18:54 59.11416 19.01494 24515 ft 489 kts 144°
2026-04-26 18:55 59.08598 19.05264 24996 ft 491 kts 144°
2026-04-26 18:55 59.05809 19.08986 25439 ft 493 kts 144°
2026-04-26 18:55 59.03240 19.12410 25844 ft 496 kts 144°
2026-04-26 18:55 59.00381 19.16211 26287 ft 499 kts 144°
2026-04-26 18:56 58.97501 19.20033 26709 ft 502 kts 144°
2026-04-26 18:56 58.94600 19.23875 27132 ft 505 kts 144°
2026-04-26 18:56 58.91696 19.27713 27550 ft 507 kts 144°
2026-04-26 18:56 58.88766 19.31577 27950 ft 510 kts 144°
2026-04-26 18:57 58.85863 19.35398 28334 ft 513 kts 144°
2026-04-26 18:57 58.83867 19.38022 28595 ft 514 kts 144°
2026-04-26 18:57 58.79923 19.43192 29093 ft 518 kts 144°
2026-04-26 18:57 58.76922 19.47116 29466 ft 520 kts 144°
2026-04-26 18:58 58.73920 19.51034 29824 ft 523 kts 145°
2026-04-26 18:58 58.70901 19.54966 30238 ft 523 kts 145°
2026-04-26 18:58 58.67890 19.58878 30720 ft 520 kts 145°
2026-04-26 18:58 58.64930 19.62715 31197 ft 518 kts 145°
2026-04-26 18:59 58.61942 19.66582 31622 ft 517 kts 145°
2026-04-26 18:59 58.58959 19.70434 32004 ft 516 kts 145°
2026-04-26 18:59 58.55975 19.74279 32393 ft 516 kts 145°
2026-04-26 18:59 58.52997 19.78109 32813 ft 514 kts 146°
2026-04-26 19:00 58.50015 19.81936 33223 ft 513 kts 146°
2026-04-26 19:00 58.47092 19.85679 33637 ft 512 kts 146°
2026-04-26 19:00 58.44130 19.89465 34024 ft 511 kts 146°
2026-04-26 19:00 58.41176 19.93233 34388 ft 509 kts 146°
2026-04-26 19:01 58.38235 19.96977 34783 ft 506 kts 146°
2026-04-26 19:01 58.35317 20.00684 35103 ft 505 kts 146°
2026-04-26 19:01 58.29408 20.08168 35104 ft 510 kts 146°
2026-04-26 19:02 58.23562 20.15542 35083 ft 503 kts 146°
2026-04-26 19:02 58.18712 20.21636 35112 ft 502 kts 146°
2026-04-26 19:03 58.11872 20.30200 35120 ft 504 kts 146°
2026-04-26 19:03 58.06042 20.37470 35107 ft 505 kts 146°
2026-04-26 19:04 58.00045 20.44469 35112 ft 506 kts 152°
2026-04-26 19:04 57.93803 20.50495 35103 ft 506 kts 154°
2026-04-26 19:05 57.84355 20.59353 35102 ft 507 kts 154°
2026-04-26 19:06 57.78059 20.65355 35105 ft 506 kts 153°
2026-04-26 19:06 57.71821 20.71324 35107 ft 506 kts 153°
2026-04-26 19:07 57.65735 20.77131 35107 ft 506 kts 153°
2026-04-26 19:07 57.59469 20.83080 35106 ft 505 kts 153°
2026-04-26 19:08 57.53230 20.88977 35105 ft 505 kts 153°
2026-04-26 19:08 57.46957 20.94882 35105 ft 504 kts 154°
2026-04-26 19:09 57.40671 21.00777 35107 ft 504 kts 154°
2026-04-26 19:09 57.34428 21.06609 35109 ft 504 kts 154°
2026-04-26 19:10 57.28150 21.12452 35106 ft 505 kts 154°
2026-04-26 19:10 57.21899 21.18247 35107 ft 505 kts 154°
2026-04-26 19:11 57.15607 21.24058 35109 ft 505 kts 154°
2026-04-26 19:11 57.09714 21.31018 35125 ft 503 kts 140°
2026-04-26 19:12 57.04269 21.39189 35107 ft 504 kts 139°
2026-04-26 19:12 56.98858 21.47312 35109 ft 505 kts 139°
2026-04-26 19:13 56.93407 21.55343 35108 ft 505 kts 140°
2026-04-26 19:13 56.87893 21.63369 35105 ft 505 kts 140°
2026-04-26 19:14 56.82369 21.71368 35107 ft 505 kts 140°
2026-04-26 19:14 56.76878 21.79293 35105 ft 505 kts 140°
2026-04-26 19:15 56.71343 21.87257 35105 ft 505 kts 140°
2026-04-26 19:15 56.65811 21.95187 35103 ft 505 kts 140°
2026-04-26 19:16 56.60311 22.03040 35106 ft 505 kts 140°
2026-04-26 19:16 56.54777 22.10911 35101 ft 505 kts 140°
2026-04-26 19:17 56.49268 22.18718 35101 ft 505 kts 140°
2026-04-26 19:17 56.43714 22.26557 35098 ft 505 kts 141°
2026-04-26 19:18 56.38205 22.34305 35100 ft 505 kts 141°
2026-04-26 19:18 56.32647 22.42091 35081 ft 502 kts 141°
2026-04-26 19:18 56.29903 22.45923 34788 ft 495 kts 141°
2026-04-26 19:19 56.27180 22.49720 34211 ft 497 kts 141°
2026-04-26 19:19 56.24467 22.53498 33375 ft 503 kts 141°
2026-04-26 19:19 56.21677 22.57376 32497 ft 509 kts 141°
2026-04-26 19:19 56.18850 22.61297 31669 ft 514 kts 141°
2026-04-26 19:20 56.16002 22.65240 30890 ft 518 kts 140°
2026-04-26 19:20 56.15072 22.66526 30644 ft 519 kts 140°
2026-04-26 19:20 56.10308 22.73095 29609 ft 516 kts 140°
2026-04-26 19:20 56.07465 22.77004 29100 ft 510 kts 140°
2026-04-26 19:21 56.04655 22.80861 28593 ft 505 kts 140°
2026-04-26 19:21 56.01885 22.84657 28032 ft 502 kts 140°
2026-04-26 19:21 55.99113 22.88450 27463 ft 499 kts 140°
2026-04-26 19:21 55.96357 22.92215 26863 ft 498 kts 140°
2026-04-26 19:22 55.93637 22.95923 26315 ft 495 kts 140°
2026-04-26 19:22 55.90901 22.99648 25822 ft 492 kts 140°
2026-04-26 19:22 55.88181 23.03341 25337 ft 488 kts 140°
2026-04-26 19:22 55.85503 23.06972 24869 ft 485 kts 140°
2026-04-26 19:23 55.82827 23.10594 24407 ft 482 kts 140°
2026-04-26 19:23 55.80151 23.14210 23939 ft 480 kts 140°
2026-04-26 19:23 55.77496 23.17792 23435 ft 477 kts 140°
2026-04-26 19:23 55.74856 23.21345 22895 ft 475 kts 140°
2026-04-26 19:24 55.72236 23.24867 22414 ft 470 kts 140°
2026-04-26 19:24 55.69636 23.28355 21947 ft 466 kts 140°
2026-04-26 19:24 55.65360 23.34079 21173 ft 460 kts 140°
2026-04-26 19:25 55.61989 23.38582 20562 ft 455 kts 140°
2026-04-26 19:25 55.61140 23.39715 20407 ft 454 kts 140°
2026-04-26 19:25 55.57778 23.44193 19789 ft 449 kts 140°
2026-04-26 19:25 55.55321 23.47460 19350 ft 445 kts 140°
2026-04-26 19:26 55.52845 23.50749 18907 ft 442 kts 140°
2026-04-26 19:26 55.50389 23.54005 18460 ft 439 kts 140°
2026-04-26 19:26 55.47953 23.57228 17954 ft 436 kts 140°
2026-04-26 19:26 55.45438 23.60181 17447 ft 434 kts 153°
2026-04-26 19:27 55.42631 23.61776 17050 ft 426 kts 173°
2026-04-26 19:27 55.39708 23.62475 16609 ft 420 kts 176°
2026-04-26 19:27 55.36817 23.63063 16158 ft 415 kts 176°
2026-04-26 19:27 55.33955 23.63638 15727 ft 411 kts 176°
2026-04-26 19:28 55.31129 23.64230 15303 ft 407 kts 175°
2026-04-26 19:28 55.28360 23.64834 14886 ft 403 kts 175°
2026-04-26 19:28 55.25588 23.65456 14442 ft 399 kts 175°
2026-04-26 19:28 55.22846 23.66078 14025 ft 395 kts 175°
2026-04-26 19:29 55.20129 23.66697 13573 ft 391 kts 175°
2026-04-26 19:29 55.17446 23.67307 13138 ft 386 kts 175°
2026-04-26 19:29 55.14821 23.67902 12681 ft 383 kts 175°
2026-04-26 19:29 55.12201 23.68553 12273 ft 379 kts 168°
2026-04-26 19:30 55.09788 23.70324 11873 ft 374 kts 144°
2026-04-26 19:30 55.07923 23.73394 11462 ft 364 kts 122°
2026-04-26 19:30 55.06727 23.77128 11280 ft 343 kts 103°
2026-04-26 19:30 55.06270 23.79715 11203 ft 331 kts 98°
2026-04-26 19:31 55.05525 23.84762 11010 ft 317 kts 95°
2026-04-26 19:31 55.05370 23.88470 10688 ft 300 kts 76°
2026-04-26 19:31 55.05565 23.92062 10338 ft 298 kts 75°
2026-04-26 19:31 55.05772 23.95664 9956 ft 298 kts 75°
2026-04-26 19:32 55.05964 23.99203 9926 ft 285 kts 75°
2026-04-26 19:32 55.06143 24.02615 9403 ft 289 kts 75°
2026-04-26 19:32 55.06325 24.06076 8882 ft 288 kts 76°
2026-04-26 19:32 55.06497 24.09543 8472 ft 282 kts 76°
2026-04-26 19:33 55.06660 24.12913 8099 ft 276 kts 76°
2026-04-26 19:33 55.06822 24.16246 7755 ft 276 kts 76°
2026-04-26 19:33 55.06984 24.19582 7402 ft 276 kts 76°
2026-04-26 19:33 55.07145 24.22930 7053 ft 277 kts 76°
2026-04-26 19:34 55.07305 24.26292 6690 ft 277 kts 77°
2026-04-26 19:34 55.07457 24.29592 6322 ft 270 kts 77°
2026-04-26 19:34 55.07608 24.32854 5998 ft 269 kts 77°
2026-04-26 19:34 55.07756 24.36063 5647 ft 265 kts 77°
2026-04-26 19:35 55.07587 24.39270 5298 ft 273 kts 104°
2026-04-26 19:35 55.06524 24.42021 4971 ft 280 kts 137°
2026-04-26 19:35 55.04788 24.43521 4615 ft 281 kts 173°
2026-04-26 19:35 55.02905 24.43255 4271 ft 265 kts 206°
2026-04-26 19:36 55.01251 24.42088 3983 ft 256 kts 209°
2026-04-26 19:36 55.00146 24.41289 3758 ft 253 kts 209°
2026-04-26 19:36 54.98462 24.39022 3630 ft 213 kts 252°
2026-04-26 19:36 54.98057 24.36691 3398 ft 196 kts 267°
2026-04-26 19:37 54.97778 24.34383 3124 ft 191 kts 269°
2026-04-26 19:37 54.97596 24.32141 2872 ft 183 kts 272°
2026-04-26 19:37 54.97475 24.29974 2631 ft 177 kts 273°
2026-04-26 19:37 54.97367 24.27870 2376 ft 172 kts 274°
2026-04-26 19:38 54.97264 24.25841 2136 ft 164 kts 273°
2026-04-26 19:38 54.97166 24.23931 1909 ft 156 kts 274°
2026-04-26 19:38 54.97074 24.22138 1689 ft 142 kts 273°
2026-04-26 19:38 54.96993 24.20531 1509 ft 129 kts 273°
2026-04-26 19:39 54.96916 24.18976 1332 ft 130 kts 272°
2026-04-26 19:39 54.96838 24.17382 1132 ft 135 kts 270°
2026-04-26 19:39 54.96753 24.15716 926 ft 139 kts 269°
2026-04-26 19:39 54.96672 24.14024 758 ft 141 kts 267°
2026-04-26 19:40 54.96591 24.12289 481 ft 149 kts 269°
2026-04-26 19:40 54.96488 24.10559 270 ft 139 kts 270°
2026-04-26 19:40 54.96422 24.09058 242 ft 102 kts 264°
2026-04-26 19:40 54.96379 24.08209 246 ft 41 kts 264°
2026-04-26 19:41 54.96362 24.07936 245 ft 19 kts 264°
2026-04-26 19:41 54.96350 24.07656 238 ft 25 kts 266°
2026-04-26 19:41 54.96343 24.07453 241 ft 8 kts 266°
2026-04-26 19:41 54.96350 24.07394 242 ft 8 kts 298°
2026-04-26 19:42 54.96430 24.07337 242 ft 11 kts 354°
2026-04-26 19:42 54.96504 24.07328 242 ft 11 kts 355°
2026-04-26 19:42 54.96574 24.07317 243 ft 9 kts 354°
2026-04-26 19:42 54.96612 24.07344 244 ft 4 kts 70°
2026-04-26 19:43 54.96615 24.07386 244 ft 0 kts 84°